Time,TemperatureF,DewpointF,PressureIn,WindDirection,WindDirectionDegrees,WindSpeedMPH,WindSpeedGustMPH,Humidity,HourlyPrecipIn,Conditions,Clouds,dailyrainin,SoftwareType,DateUTC
2013-10-19 00:04:00,35.0,35.0,-100.00,SW,225,3.0,4.0,99,-99.99,,,-99.99,,2013-10-19 05:04:00,
2013-10-19 00:42:00,35.0,35.0,-100.00,South,180,3.0,3.0,99,-99.99,,,-99.99,,2013-10-19 05:42:00,
2013-10-19 00:52:00,35.0,35.0,-100.00,South,180,3.0,3.0,99,-99.99,,,-99.99,,2013-10-19 05:52:00,
2013-10-19 01:02:00,35.0,35.0,-100.00,South,180,3.0,3.0,99,-99.99,,,-99.99,,2013-10-19 06:02:00,
2013-10-19 02:42:00,39.0,39.0,-100.00,WNW,285,2.0,3.0,99,-99.99,,,-99.99,,2013-10-19 07:42:00,
2013-10-19 02:53:00,39.0,39.0,-100.00,WNW,285,2.0,3.0,99,-99.99,,,-99.99,,2013-10-19 07:53:00,
2013-10-19 03:03:00,39.0,39.0,-100.00,WNW,285,2.0,3.0,99,-99.99,,,-99.99,,2013-10-19 08:03:00,
2013-10-19 03:42:00,38.0,37.0,-100.00,NW,325,13.0,14.0,99,-99.99,,,-99.99,,2013-10-19 08:42:00,
2013-10-19 03:52:00,38.0,37.0,-100.00,NW,325,13.0,14.0,99,-99.99,,,-99.99,,2013-10-19 08:52:00,
2013-10-19 04:01:00,38.0,37.0,-100.00,NW,325,13.0,14.0,99,-99.99,,,-99.99,,2013-10-19 09:01:00,
2013-10-19 04:10:00,35.0,35.0,-100.00,NW,310,6.0,7.0,99,-99.99,,,-99.99,,2013-10-19 09:10:00,
2013-10-19 04:43:00,35.0,35.0,-100.00,NW,310,6.0,7.0,99,-99.99,,,-99.99,,2013-10-19 09:43:00,
2013-10-19 04:54:00,35.0,35.0,-100.00,NW,310,6.0,7.0,99,-99.99,,,-99.99,,2013-10-19 09:54:00,
2013-10-19 05:03:00,35.0,35.0,-100.00,NW,310,6.0,7.0,99,-99.99,,,-99.99,,2013-10-19 10:03:00,
2013-10-19 05:42:00,35.0,35.0,-100.00,WNW,300,7.0,8.0,99,-99.99,,,-99.99,,2013-10-19 10:42:00,
2013-10-19 05:53:00,35.0,35.0,-100.00,WNW,300,7.0,8.0,99,-99.99,,,-99.99,,2013-10-19 10:53:00,
2013-10-19 06:03:00,35.0,35.0,-100.00,WNW,300,7.0,8.0,99,-99.99,,,-99.99,,2013-10-19 11:03:00,
2013-10-19 06:42:00,36.0,35.0,-100.00,NW,310,11.0,14.0,96,-99.99,,,-99.99,,2013-10-19 11:42:00,
2013-10-19 06:52:00,36.0,35.0,-100.00,NW,310,11.0,14.0,96,-99.99,,,-99.99,,2013-10-19 11:52:00,
2013-10-19 07:01:00,36.0,35.0,-100.00,NW,310,11.0,14.0,96,-99.99,,,-99.99,,2013-10-19 12:01:00,
2013-10-19 07:10:00,36.0,34.0,-100.00,NW,305,11.0,12.0,93,-99.99,,,-99.99,,2013-10-19 12:10:00,
2013-10-19 07:43:00,36.0,34.0,-100.00,NW,305,11.0,12.0,93,-99.99,,,-99.99,,2013-10-19 12:43:00,
2013-10-19 07:52:00,36.0,34.0,-100.00,NW,305,11.0,12.0,93,-99.99,,,-99.99,,2013-10-19 12:52:00,
2013-10-19 08:01:00,36.0,34.0,-100.00,NW,305,11.0,12.0,93,-99.99,,,-99.99,,2013-10-19 13:01:00,
2013-10-19 08:42:00,35.0,34.0,-100.00,NW,310,11.0,13.0,95,-99.99,,,-99.99,,2013-10-19 13:42:00,
2013-10-19 08:52:00,35.0,34.0,-100.00,NW,310,11.0,13.0,95,-99.99,,,-99.99,,2013-10-19 13:52:00,
2013-10-19 09:02:00,35.0,34.0,-100.00,NW,310,11.0,13.0,95,-99.99,,,-99.99,,2013-10-19 14:02:00,
2013-10-19 09:42:00,36.0,35.0,-100.00,NW,310,12.0,16.0,99,-99.99,,,-99.99,,2013-10-19 14:42:00,
2013-10-19 09:52:00,36.0,35.0,-100.00,NW,310,12.0,16.0,99,-99.99,,,-99.99,,2013-10-19 14:52:00,
2013-10-19 10:02:00,36.0,35.0,-100.00,NW,310,12.0,16.0,99,-99.99,,,-99.99,,2013-10-19 15:02:00,
2013-10-19 10:44:00,36.0,36.0,-100.00,NNW,330,12.0,14.0,97,-99.99,,,-99.99,,2013-10-19 15:44:00,
2013-10-19 10:55:00,36.0,36.0,-100.00,NNW,330,12.0,14.0,97,-99.99,,,-99.99,,2013-10-19 15:55:00,
2013-10-19 11:04:00,36.0,36.0,-100.00,NNW,330,12.0,14.0,97,-99.99,,,-99.99,,2013-10-19 16:04:00,
2013-10-19 11:10:00,37.0,36.0,-100.00,NW,315,11.0,13.0,95,-99.99,,,-99.99,,2013-10-19 16:10:00,
2013-10-19 11:43:00,37.0,36.0,-100.00,NW,315,11.0,13.0,95,-99.99,,,-99.99,,2013-10-19 16:43:00,
2013-10-19 11:53:00,37.0,36.0,-100.00,NW,315,11.0,13.0,95,-99.99,,,-99.99,,2013-10-19 16:53:00,
2013-10-19 12:03:00,37.0,36.0,-100.00,NW,315,11.0,13.0,95,-99.99,,,-99.99,,2013-10-19 17:03:00,
2013-10-19 12:10:00,39.0,36.0,-100.00,NW,305,12.0,15.0,91,-99.99,,,-99.99,,2013-10-19 17:10:00,
2013-10-19 12:43:00,39.0,36.0,-100.00,NW,305,12.0,15.0,91,-99.99,,,-99.99,,2013-10-19 17:43:00,
2013-10-19 12:52:00,39.0,36.0,-100.00,NW,305,12.0,15.0,91,-99.99,,,-99.99,,2013-10-19 17:52:00,
2013-10-19 13:02:00,39.0,36.0,-100.00,NW,305,12.0,15.0,91,-99.99,,,-99.99,,2013-10-19 18:02:00,
2013-10-19 13:10:00,41.0,35.0,-100.00,NW,320,9.0,9.0,81,-99.99,,,-99.99,,2013-10-19 18:10:00,
2013-10-19 13:42:00,41.0,35.0,-100.00,NW,320,9.0,9.0,81,-99.99,,,-99.99,,2013-10-19 18:42:00,
2013-10-19 13:52:00,41.0,35.0,-100.00,NW,320,9.0,9.0,81,-99.99,,,-99.99,,2013-10-19 18:52:00,
2013-10-19 14:02:00,41.0,35.0,-100.00,NW,320,9.0,9.0,81,-99.99,,,-99.99,,2013-10-19 19:02:00,
2013-10-19 14:10:00,41.0,35.0,-100.00,NW,320,9.0,10.0,77,-99.99,,,-99.99,,2013-10-19 19:10:00,
2013-10-19 14:42:00,41.0,35.0,-100.00,NW,320,9.0,10.0,77,-99.99,,,-99.99,,2013-10-19 19:42:00,
2013-10-19 14:52:00,41.0,35.0,-100.00,NW,320,9.0,10.0,77,-99.99,,,-99.99,,2013-10-19 19:52:00,
2013-10-19 15:03:00,41.0,35.0,-100.00,NW,320,9.0,10.0,77,-99.99,,,-99.99,,2013-10-19 20:03:00,
2013-10-19 15:10:00,44.0,34.0,-100.00,NW,310,6.0,8.0,67,-99.99,,,-99.99,,2013-10-19 20:10:00,
2013-10-19 15:42:00,44.0,34.0,-100.00,NW,310,6.0,8.0,67,-99.99,,,-99.99,,2013-10-19 20:42:00,
2013-10-19 15:52:00,44.0,34.0,-100.00,NW,310,6.0,8.0,67,-99.99,,,-99.99,,2013-10-19 20:52:00,
2013-10-19 16:02:00,44.0,34.0,-100.00,NW,310,6.0,8.0,67,-99.99,,,-99.99,,2013-10-19 21:02:00,
2013-10-19 16:44:00,44.0,33.0,-100.00,West,265,4.0,6.0,66,-99.99,,,-99.99,,2013-10-19 21:44:00,
2013-10-19 16:54:00,44.0,33.0,-100.00,West,265,4.0,6.0,66,-99.99,,,-99.99,,2013-10-19 21:54:00,
2013-10-19 17:04:00,44.0,33.0,-100.00,West,265,4.0,6.0,66,-99.99,,,-99.99,,2013-10-19 22:04:00,
2013-10-19 17:11:00,43.0,32.0,-100.00,SW,225,4.0,6.0,66,-99.99,,,-99.99,,2013-10-19 22:11:00,
2013-10-19 17:43:00,43.0,32.0,-100.00,SW,225,4.0,6.0,66,-99.99,,,-99.99,,2013-10-19 22:43:00,
2013-10-19 17:53:00,43.0,32.0,-100.00,SW,225,4.0,6.0,66,-99.99,,,-99.99,,2013-10-19 22:53:00,
2013-10-19 18:03:00,43.0,32.0,-100.00,SW,225,4.0,6.0,66,-99.99,,,-99.99,,2013-10-19 23:03:00,
2013-10-19 18:10:00,40.0,32.0,-100.00,NW,310,2.0,2.0,74,-99.99,,,-99.99,,2013-10-19 23:10:00,
2013-10-19 18:42:00,40.0,32.0,-100.00,NW,310,2.0,2.0,74,-99.99,,,-99.99,,2013-10-19 23:42:00,
2013-10-19 18:52:00,40.0,32.0,-100.00,NW,310,2.0,2.0,74,-99.99,,,-99.99,,2013-10-19 23:52:00,
2013-10-19 19:02:00,40.0,32.0,-100.00,NW,310,2.0,2.0,74,-99.99,,,-99.99,,2013-10-20 00:02:00,
2013-10-19 19:10:00,38.0,35.0,-100.00,ESE,120,3.0,3.0,91,-99.99,,,-99.99,,2013-10-20 00:10:00,
2013-10-19 19:42:00,38.0,35.0,-100.00,ESE,120,3.0,3.0,91,-99.99,,,-99.99,,2013-10-20 00:42:00,
2013-10-19 19:52:00,38.0,35.0,-100.00,ESE,120,3.0,3.0,91,-99.99,,,-99.99,,2013-10-20 00:52:00,
2013-10-19 20:02:00,38.0,35.0,-100.00,ESE,120,3.0,3.0,91,-99.99,,,-99.99,,2013-10-20 01:02:00,
2013-10-19 20:42:00,37.0,36.0,-100.00,SSE,160,3.0,4.0,99,-99.99,,,-99.99,,2013-10-20 01:42:00,
2013-10-19 20:52:00,37.0,36.0,-100.00,SSE,160,3.0,4.0,99,-99.99,,,-99.99,,2013-10-20 01:52:00,
2013-10-19 21:02:00,37.0,36.0,-100.00,SSE,160,3.0,4.0,99,-99.99,,,-99.99,,2013-10-20 02:02:00,
2013-10-19 21:10:00,38.0,37.0,-100.00,SSE,155,5.0,6.0,99,-99.99,,,-99.99,,2013-10-20 02:10:00,
2013-10-19 21:42:00,38.0,37.0,-100.00,SSE,155,5.0,6.0,99,-99.99,,,-99.99,,2013-10-20 02:42:00,
2013-10-19 21:52:00,38.0,37.0,-100.00,SSE,155,5.0,6.0,99,-99.99,,,-99.99,,2013-10-20 02:52:00,
2013-10-19 22:02:00,38.0,37.0,-100.00,SSE,155,5.0,6.0,99,-99.99,,,-99.99,,2013-10-20 03:02:00,
2013-10-19 22:10:00,37.0,37.0,-100.00,SSE,165,6.0,7.0,99,-99.99,,,-99.99,,2013-10-20 03:10:00,
2013-10-19 22:44:00,37.0,37.0,-100.00,SSE,165,6.0,7.0,99,-99.99,,,-99.99,,2013-10-20 03:44:00,
2013-10-19 22:55:00,37.0,37.0,-100.00,SSE,165,6.0,7.0,99,-99.99,,,-99.99,,2013-10-20 03:55:00,
2013-10-19 23:02:00,-999.0,-99.9,-100.00,SSE,165,6.0,7.0,-999,-99.99,,,-99.99,,2013-10-20 04:02:00,
2013-10-19 23:10:00,38.0,36.0,-100.00,SSE,150,6.0,6.0,94,-99.99,,,-99.99,,2013-10-20 04:10:00,
2013-10-19 23:44:00,38.0,36.0,-100.00,SSE,150,6.0,6.0,94,-99.99,,,-99.99,,2013-10-20 04:44:00,
2013-10-19 23:54:00,38.0,36.0,-100.00,SSE,150,6.0,6.0,94,-99.99,,,-99.99,,2013-10-20 04:54:00,